User: anonymous   Login
Location: Unspecified
(0.0000°N, 0.0000°E)
Time: 05:20:47
(UTC+00:00)
Language:

DNEPR OBJECT AC - Orbit

View from above orbital plane
View from above orbital plane
View from above satellite
View from above satellite

Ground track
Ground track

The orbit data is extracted from the following two-line orbital elements,

1 39442U 13066AC  18146.36825222 +.00000396 +00000-0 +45744-4 0  9994
2 39442 097.6007 200.8629 0032482 160.4374 199.8099 14.90511716243182
Epoch (UTC): 26 May 2018 08:50:16
Eccentricity: 0.0032482
inclination: 97.6007°
perigee height: 573 km
apogee height: 619 km
right ascension of ascending node: 200.8629°
argument of perigee: 160.4374°
revolutions per day: 14.90511716
mean anomaly at epoch: 199.8099°
orbit number at epoch: 24318

The dashed part of the orbit path shows where the satellite is in the earth's shadow,  

DLR